Location: Shenandoah County Park
(38.9356°N, 78.4524°W)
Time: 05:19:00
(UTC-04:00)

Transit 2A - Pass Details

Date: 22 June 2024
Orbit: 591 x 960 km, 66.7° (Epoch: 23 July)

Event Time Altitude Azimuth Distance (km) Brightness Sun altitude
Rises 01:37:55 0° 329° (NNW) 3,560 10.2 -27.4°
Reaches altitude 10° 01:40:25 10° 328° (NNW) 2,647 9.4 -27.4°
Maximum altitude 01:46:39 74° 244° (WSW) 996 6.3 -27.2°
Enters shadow 01:47:01 72° 215° (SW) 1,007 6.3 -27.2°
